Time,TemperatureF,DewpointF,PressureIn,WindDirection,WindDirectionDegrees,WindSpeedMPH,WindSpeedGustMPH,Humidity,HourlyPrecipIn,Conditions,Clouds,dailyrainin,SoftwareType,DateUTC
2013-02-21 00:00:00,41.0,-99.9,29.99,East,90,16.0,18.0,-999,-99.99,,,-99.99,,2013-02-21 08:00:00,
2013-02-21 00:52:00,41.0,-99.9,29.99,East,90,16.0,18.0,-999,-99.99,,,-99.99,,2013-02-21 08:52:00,
2013-02-21 01:00:00,41.0,-99.9,29.98,East,100,16.0,20.0,-999,-99.99,,,-99.99,,2013-02-21 09:00:00,
2013-02-21 01:52:00,41.0,-99.9,29.98,East,100,16.0,20.0,-999,-99.99,,,-99.99,,2013-02-21 09:52:00,
2013-02-21 04:00:00,42.0,-99.9,29.94,ESE,110,16.0,20.0,-999,-99.99,,,-99.99,,2013-02-21 12:00:00,
2013-02-21 04:53:00,42.0,-99.9,29.94,ESE,110,16.0,20.0,-999,-99.99,,,-99.99,,2013-02-21 12:53:00,
2013-02-21 05:00:00,42.0,-99.9,29.94,East,100,18.0,20.0,-999,-99.99,,,-99.99,,2013-02-21 13:00:00,
2013-02-21 05:52:00,42.0,-99.9,29.94,East,100,18.0,20.0,-999,-99.99,,,-99.99,,2013-02-21 13:52:00,
2013-02-21 06:00:00,42.0,-99.9,29.93,East,100,20.0,22.0,-999,-99.99,,,-99.99,,2013-02-21 14:00:00,
2013-02-21 06:52:00,42.0,-99.9,29.93,East,100,20.0,22.0,-999,-99.99,,,-99.99,,2013-02-21 14:52:00,
2013-02-21 07:00:00,42.0,-99.9,29.92,East,90,20.0,22.0,-999,-99.99,,,-99.99,,2013-02-21 15:00:00,
2013-02-21 07:52:00,42.0,-99.9,29.92,East,90,20.0,22.0,-999,-99.99,,,-99.99,,2013-02-21 15:52:00,
2013-02-21 08:00:00,42.0,-99.9,29.92,East,90,20.0,22.0,-999,-99.99,,,-99.99,,2013-02-21 16:00:00,
2013-02-21 08:52:00,42.0,-99.9,29.92,East,90,20.0,22.0,-999,-99.99,,,-99.99,,2013-02-21 16:52:00,
2013-02-21 09:00:00,43.0,-99.9,29.93,East,80,18.0,22.0,-999,-99.99,,,-99.99,,2013-02-21 17:00:00,
2013-02-21 09:52:00,43.0,-99.9,29.93,East,80,18.0,22.0,-999,-99.99,,,-99.99,,2013-02-21 17:52:00,
2013-02-21 10:00:00,44.0,-99.9,29.93,East,100,16.0,20.0,-999,-99.99,,,-99.99,,2013-02-21 18:00:00,
2013-02-21 10:52:00,44.0,-99.9,29.93,East,100,16.0,20.0,-999,-99.99,,,-99.99,,2013-02-21 18:52:00,
2013-02-21 12:00:00,44.0,-99.9,29.93,SE,140,13.0,18.0,-999,-99.99,,,-99.99,,2013-02-21 20:00:00,
2013-02-21 12:53:00,44.0,-99.9,29.93,SE,140,13.0,18.0,-999,-99.99,,,-99.99,,2013-02-21 20:53:00,
2013-02-21 13:00:00,45.0,-99.9,29.93,ESE,110,11.0,13.0,-999,-99.99,,,-99.99,,2013-02-21 21:00:00,
2013-02-21 13:52:00,45.0,-99.9,29.93,ESE,110,11.0,13.0,-999,-99.99,,,-99.99,,2013-02-21 21:52:00,
2013-02-21 14:00:00,45.0,-99.9,29.93,East,90,9.0,13.0,-999,-99.99,,,-99.99,,2013-02-21 22:00:00,
2013-02-21 14:52:00,45.0,-99.9,29.93,East,90,9.0,13.0,-999,-99.99,,,-99.99,,2013-02-21 22:52:00,
2013-02-21 15:00:00,45.0,-99.9,29.94,East,90,9.0,9.0,-999,-99.99,,,-99.99,,2013-02-21 23:00:00,
2013-02-21 15:53:00,45.0,-99.9,29.94,East,90,9.0,9.0,-999,-99.99,,,-99.99,,2013-02-21 23:53:00,
2013-02-21 16:00:00,44.0,-99.9,29.94,East,90,13.0,16.0,-999,-99.99,,,-99.99,,2013-02-22 00:00:00,
2013-02-21 16:52:00,44.0,-99.9,29.94,East,90,13.0,16.0,-999,-99.99,,,-99.99,,2013-02-22 00:52:00,
2013-02-21 17:00:00,44.0,-99.9,29.96,East,80,13.0,16.0,-999,-99.99,,,-99.99,,2013-02-22 01:00:00,
2013-02-21 17:52:00,44.0,-99.9,29.96,East,80,13.0,16.0,-999,-99.99,,,-99.99,,2013-02-22 01:52:00,
2013-02-21 18:00:00,44.0,-99.9,29.95,East,80,13.0,16.0,-999,-99.99,,,-99.99,,2013-02-22 02:00:00,
2013-02-21 18:52:00,44.0,-99.9,29.95,East,80,13.0,16.0,-999,-99.99,,,-99.99,,2013-02-22 02:52:00,
2013-02-21 19:00:00,44.0,-99.9,29.96,East,90,13.0,16.0,-999,-99.99,,,-99.99,,2013-02-22 03:00:00,
2013-02-21 19:52:00,44.0,-99.9,29.96,East,90,13.0,16.0,-999,-99.99,,,-99.99,,2013-02-22 03:52:00,
2013-02-21 20:00:00,44.0,-99.9,29.98,ESE,110,11.0,13.0,-999,-99.99,,,-99.99,,2013-02-22 04:00:00,
2013-02-21 20:52:00,44.0,-99.9,29.98,ESE,110,11.0,13.0,-999,-99.99,,,-99.99,,2013-02-22 04:52:00,
2013-02-21 21:00:00,44.0,-99.9,29.97,East,90,13.0,18.0,-999,-99.99,,,-99.99,,2013-02-22 05:00:00,
2013-02-21 21:52:00,44.0,-99.9,29.97,East,90,13.0,18.0,-999,-99.99,,,-99.99,,2013-02-22 05:52:00,
2013-02-21 22:00:00,44.0,-99.9,29.96,East,90,11.0,13.0,-999,-99.99,,,-99.99,,2013-02-22 06:00:00,
2013-02-21 22:52:00,44.0,-99.9,29.96,East,90,11.0,13.0,-999,-99.99,,,-99.99,,2013-02-22 06:52:00,
2013-02-21 23:00:00,45.0,-99.9,29.97,ESE,120,2.0,4.0,-999,-99.99,,,-99.99,,2013-02-22 07:00:00,
2013-02-21 23:52:00,45.0,-99.9,29.97,ESE,120,2.0,4.0,-999,-99.99,,,-99.99,,2013-02-22 07:52:00,